Kansas City, MO

6:33 PM CST on February 26, 2017 (GMT -0600)
Kansas City Downtown

Weather History for KMKC - August, 2014

Change the Weather History Date:

Sunday, August 31, 2014

  Actual Average Record
Temperature  
Mean Temperature 82 °F -  
Max Temperature 95 °F 86 °F 105 °F (2000)
Min Temperature 69 °F 66 °F 63 °F (2003)
Cooling Degree Days 17    
Growing Degree Days 32 (Base 50)    
Moisture  
Dew Point 67 °F    
Average Humidity 67    
Maximum Humidity 90    
Minimum Humidity 38    
Precipitation  
Precipitation 0.09 in - - ()
Sea Level Pressure  
Sea Level Pressure 29.83 in    
Wind  
Wind Speed 10 mph (SSW)    
Max Wind Speed 24 mph    
Max Gust Speed 43 mph    
Visibility 9 miles    
Events Rain , Thunderstorm    
Averages and records for this station are not official NWS values.
T = Trace of Precipitation, MM = Missing Value Source: NWS Daily Summary

Daily Weather History Graph

Daily Weather History Graph

Search for Another Location

Airport or City:

Trip Planner

Search our weather history database for the weather conditions in past years. The results will help you decide how hot, cold, wet, or windy it might be!

Date:

Astronomy

Aug. 31, 2014 Rise Set
Actual Time 6:46 AM CDT 7:50 PM CDT
Civil Twilight 6:18 AM CDT 8:17 PM CDT
Nautical Twilight 5:45 AM CDT 8:50 PM CDT
Astronomical Twilight 5:11 AM CDT 9:24 PM CDT
Moon 12:30 PM CDT (8/31) 11:08 PM CDT (8/31)
Length of Visible Light 13h 59m
Length of Day
13h 04m
Waxing Crescent, 32% of the Moon is Illuminated
Aug 31
Waxing Crescent
Sep 2
First Quarter
Sep 8
Full
Sep 15
Last Quarter
Sep 24
New

Hourly Weather History & Observations

Time (CDT) Temp. Heat Index Dew Point Humidity Pressure Visibility Wind Dir Wind Speed Gust Speed Precip Events Conditions
12:54 AM 80.1 °F 82.1 °F 66.0 °F 62% 29.86 in 10.0 mi SE 6.9 mph 17.3 mph N/A   Clear
1:54 AM 75.9 °F - 66.9 °F 74% 29.86 in 10.0 mi SSW 4.6 mph - N/A   Clear
2:54 AM 75.0 °F - 66.9 °F 76% 29.85 in 10.0 mi South 5.8 mph - N/A   Clear
3:54 AM 73.9 °F - 66.9 °F 79% 29.85 in 10.0 mi SSW 5.8 mph - N/A   Clear
4:54 AM 73.9 °F - 66.9 °F 79% 29.85 in 10.0 mi SSW 6.9 mph - N/A   Clear
5:54 AM 73.0 °F - 68.0 °F 84% 29.86 in 10.0 mi South 9.2 mph - N/A   Clear
6:54 AM 73.0 °F - 68.0 °F 84% 29.86 in 10.0 mi South 9.2 mph - N/A   Clear
7:54 AM 73.9 °F - 69.1 °F 85% 29.88 in 10.0 mi South 10.4 mph - N/A   Clear
8:54 AM 78.1 °F - 69.1 °F 74% 29.88 in 10.0 mi SSW 10.4 mph - N/A   Clear
9:54 AM 82.9 °F 87.0 °F 70.0 °F 65% 29.88 in 10.0 mi SSW 11.5 mph - N/A   Clear
10:54 AM 86.0 °F 91.5 °F 71.1 °F 61% 29.87 in 10.0 mi South 10.4 mph - N/A   Clear
11:54 AM 87.1 °F 92.8 °F 71.1 °F 59% 29.84 in 10.0 mi South 10.4 mph - N/A   Clear
12:54 PM 90.0 °F 96.4 °F 71.1 °F 54% 29.82 in 10.0 mi SSE 12.7 mph 19.6 mph N/A   Clear
1:54 PM 90.0 °F 96.4 °F 71.1 °F 54% 29.80 in 10.0 mi South 13.8 mph 26.5 mph N/A   Clear
2:54 PM 93.9 °F 100.3 °F 70.0 °F 46% 29.77 in 10.0 mi South 18.4 mph 24.2 mph N/A   Clear
3:54 PM 95.0 °F 99.5 °F 68.0 °F 41% 29.74 in 10.0 mi SSE 18.4 mph 32.2 mph 0.00 in Rain Light Rain
4:54 PM 95.0 °F 97.9 °F 66.0 °F 38% 29.73 in 10.0 mi South 16.1 mph 25.3 mph 0.00 in   Clear
5:54 PM 93.9 °F 96.1 °F 64.9 °F 38% 29.70 in 10.0 mi South 13.8 mph 26.5 mph 0.00 in   Clear
6:54 PM 91.4 °F 93.2 °F 64.4 °F 41% 29.71 in 10.0 mi South 17.3 mph 24.2 mph N/A   Clear
7:54 PM 89.1 °F 90.3 °F 64.0 °F 43% 29.69 in 10.0 mi South 16.1 mph 21.9 mph N/A   Clear
8:54 PM 88.0 °F 89.6 °F 64.9 °F 46% 29.67 in 10.0 mi South 16.1 mph 23.0 mph 0.00 in   Clear
9:54 PM 87.1 °F 89.2 °F 66.0 °F 49% 29.76 in 10.0 mi SW 10.4 mph - 0.00 in   Clear
10:21 PM 73.9 °F - 63.0 °F 68% 29.86 in 10.0 mi NW 24.2 mph 42.6 mph 0.00 in Rain Light Rain
10:29 PM 72.0 °F - 64.0 °F 76% 29.89 in 8.0 mi WNW 24.2 mph 42.6 mph 0.02 in Rain , Thunderstorm Light Rain
10:35 PM 70.0 °F - 64.9 °F 84% 29.92 in 2.0 mi West 18.4 mph 38.0 mph 0.13 in Rain , Thunderstorm Heavy Thunderstorms and Rain
10:41 PM 69.1 °F - 64.9 °F 87% 29.89 in 1.0 mi West 6.9 mph 28.8 mph 0.27 in Rain , Thunderstorm Heavy Thunderstorms and Rain
10:52 PM 69.8 °F - 66.2 °F 88% 29.89 in 2.0 mi South 3.5 mph - 0.36 in Rain , Thunderstorm Heavy Thunderstorms and Rain
10:59 PM 69.8 °F - 66.2 °F 88% 29.89 in 3.0 mi Calm Calm - N/A Rain , Thunderstorm Rain
11:36 PM 69.1 °F - 66.0 °F 90% 29.89 in 8.0 mi SSE 4.6 mph - 0.08 in Rain Light Rain
11:54 PM 69.1 °F - 64.9 °F 87% 29.85 in 9.0 mi Calm Calm - 0.09 in Rain Light Rain